Location: Góry Miechowskie
(50.3599°N, 20.1803°E)
Time: 12:28:53
(UTC+00:00)

GEOS 3 Rocket - Pass Details

Date: 15 June 2024
Orbit: 784 x 831 km, 115.0° (Epoch: 15 July)

Event Time Altitude Azimuth Distance (km) Brightness Sun altitude
Rises 00:09:31 0° 41° (NE) 3,339 8.3 -13.7°
Reaches altitude 10° 00:11:52 10° 37° (NE) 2,398 7.4 -13.6°
Maximum altitude 00:16:55 54° 321° (NW) 969 4.2 -13.2°
Drops below altitude 10° 00:21:53 10° 245° (WSW) 2,359 5.6 -12.9°
Enters shadow 00:21:59 10° 245° (WSW) 2,395 5.6 -12.9°
